Regional Weather Roundup
Issued by NWS Northern Indiana

Home | Current Version | Previous Version | Graphics & Text | Print | Product List | Glossary On
Versions: 1 2 3 4 5 6 7 8 9 10 11 12 13 14 15 16 17 18 19 20 21 22 23 24 25 26 27 28 29 30 31 32 33 34 35 36 37 38 39 40 41 42 43 44 45 46 47 48 49 50
000
ASUS43 KIWX 240200
RWRIWX

KIWX WEATHER ROUNDUP
NATIONAL WEATHER SERVICE NORTHERN INDIANA
900 PM EST SUN NOV 23 2014

NOTE: "FAIR" INDICATES FEW OR NO CLOUDS BELOW 12,000 FEET WITH NO
SIGNIFICANT WEATHER AND/OR OBSTRUCTIONS TO VISIBILITY.

* THESE STATIONS ARE NOT UNDER NWS QUALITY CONTROL. THEY ALSO MAY NOT
  REPORT WEATHER SUCH AS PRECIPITATION OR FOG.

INZ001>027-240300-
NORTHERN INDIANA

CITY           SKY/WX    TMP DP  RH WIND       PRES   REMARKS
GARY*          LGT RAIN  52  52 100 SE12      29.27F
SOUTH BEND     RAIN      52  50  93 SE10      29.32F FOG
GOSHEN         RAIN      56  48  74 SE12      29.32F
ANGOLA*        CLOUDY    48  39  71 SE15      29.37F
FORT WAYNE     RAIN      51  49  92 SE14      29.34F FOG

$$
INZ028>050-240300-
CENTRAL INDIANA

CITY           SKY/WX    TMP DP  RH WIND       PRES   REMARKS
LAFAYETTE      LGT RAIN  51  51 100 SE7       29.26F FOG
KOKOMO*        CLOUDY    52  50  93 SE13      29.28F
MUNCIE*        RAIN      54  52  93 S12G21    29.30F FOG
INDIANAPOLIS   RAIN      51  51 100 SE13      29.26F FOG

$$
MIZ043>046-050>051-056>058-064>065-071>073-077>080-240300-
SOUTHWEST LOWER MICHIGAN

CITY           SKY/WX    TMP DP  RH WIND       PRES   REMARKS
BATTLE CREEK   RAIN      52  47  83 SE14G21   29.36F
BENTON HARBOR  RAIN      50  49  96 E10       29.31F FOG
COLDWATER*     RAIN      51  49  93 SE15G23   29.36F
HILLSDALE*     RAIN      50  50 100 SE13G18   29.37F
HOLLAND        LGT RAIN  52  50  93 E14       29.35F
GRAND RAPIDS   RAIN      50  48  93 E10       29.37F FOG
KALAMAZOO      RAIN      50  48  93 VRB6      29.35F FOG
STURGIS*       LGT RAIN  48  48 100 SE13G20   29.33F
THREE RIVERS*  RAIN      50  48  93 SE6       29.34F

$$
OHZ001>008-015>018-024>025-240300-
NORTHWEST OHIO

CITY           SKY/WX    TMP DP  RH WIND       PRES   REMARKS
DEFIANCE       HVY RAIN  52  49  89 SE10G17   29.37F FOG
FINDLAY        LGT RAIN  53  49  86 SE18G30   29.41F
TOLEDO EXPRESS RAIN      51  49  92 SE6       29.42F FOG
TOLEDO METCALF RAIN      52  49  89 SE14      29.44F FOG
LIMA           LGT RAIN  54  51  90 SE24G35   29.38F

$$
AND FOR LAKE MICHIGAN COASTAL AND OPEN LAKE BUOY OBSERVATIONS

STATION/POSITION TEMP    WIND        PRES    VSBY  WAVE
                 AIR SEA DIR/SP/G                  HT/PER
                 (F)     (DEG/KT/KT) (MB)    (MI)  (FT/S)
CALUMET HARBOR    50     120/  8/ 11  990.7F
MICHIGAN CITY     52     110/ 11/ 15   N/A
SAINT JOSEPH      51     130/  1/  7  994.6F
SOUTH LAKE BUOY   46 42  110/ 12/ 14  994.6F         2/ 3

$$
&&


USA.gov is the U.S. government's official web portal to all federal, state and local government web resources and services.